Cecil Field, FL

6:34 PM EST on December 13, 2017 (GMT -0500)
Cecil

Weather History for KVQQ - August, 2014

Change the Weather History Date:

Friday, August 22, 2014

  Actual Average (KNIP) Record (KNIP)
Temperature  
Mean Temperature 82 °F -  
Max Temperature 95 °F 88 °F 102 °F (2014)
Min Temperature 69 °F 73 °F 73 °F (1996)
Cooling Degree Days 17    
Growing Degree Days 32 (Base 50)    
Moisture  
Dew Point 72 °F    
Average Humidity 82    
Maximum Humidity 100    
Minimum Humidity 47    
Precipitation  
Precipitation 0.00 in - - ()
Sea Level Pressure  
Sea Level Pressure 30.04 in    
Wind  
Wind Speed 1 mph (SSE)    
Max Wind Speed 12 mph    
Max Gust Speed -    
Visibility 10 miles    
Events      
Averages and records for this station are not official NWS values.
T = Trace of Precipitation, MM = Missing Value Source: NWS Daily Summary

Daily Weather History Graph

Daily Weather History Graph

Search for Another Location

Airport or City:

Trip Planner

Search our weather history database for the weather conditions in past years. The results will help you decide how hot, cold, wet, or windy it might be!

Date:

Astronomy

Aug. 22, 2014 Rise Set
Actual Time 6:58 AM EDT 8:01 PM EDT
Civil Twilight 6:33 AM EDT 8:26 PM EDT
Nautical Twilight 6:04 AM EDT 8:55 PM EDT
Astronomical Twilight 5:34 AM EDT 9:25 PM EDT
Moon 4:25 AM EDT (8/22) 6:05 PM EDT (8/22)
Length of Visible Light 13h 52m
Length of Day
13h 02m
Waning Crescent, 8% of the Moon is Illuminated
Aug 22
Waning Crescent
Aug 25
New
Sep 2
First Quarter
Sep 8
Full
Sep 15
Last Quarter

Hourly Weather History & Observations

Time (EDT) Temp. Heat Index Dew Point Humidity Pressure Visibility Wind Dir Wind Speed Gust Speed Precip Events Conditions
12:15 AM 75.2 °F - 71.6 °F 89% 30.10 in 10.0 mi Calm Calm - N/A   Clear
12:35 AM 75.2 °F - 71.6 °F 89% 30.09 in 10.0 mi Calm Calm - N/A   Clear
1:15 AM 73.4 °F - 71.6 °F 94% 30.08 in 10.0 mi Calm Calm - N/A   Clear
1:35 AM 73.4 °F - 71.6 °F 94% 30.08 in 10.0 mi Calm Calm - N/A   Clear
1:55 AM 73.4 °F - 71.6 °F 94% 30.08 in 10.0 mi Calm Calm - N/A   Clear
2:55 AM 71.6 °F - 71.6 °F 100% 30.07 in 10.0 mi Calm Calm - N/A   Clear
3:15 AM 71.6 °F - 69.8 °F 94% 30.06 in 10.0 mi Calm Calm - N/A   Clear
3:35 AM 71.6 °F - 71.6 °F 100% 30.06 in 10.0 mi Calm Calm - N/A   Clear
3:55 AM 71.6 °F - 71.6 °F 100% 30.05 in 10.0 mi Calm Calm - N/A   Clear
4:15 AM 71.6 °F - 69.8 °F 94% 30.05 in 10.0 mi Calm Calm - N/A   Clear
4:35 AM 71.6 °F - 71.6 °F 100% 30.05 in 10.0 mi Calm Calm - N/A   Clear
4:55 AM 71.6 °F - 69.8 °F 94% 30.05 in 10.0 mi Calm Calm - N/A   Clear
5:15 AM 71.6 °F - 69.8 °F 94% 30.06 in 10.0 mi Calm Calm - N/A   Clear
5:35 AM 71.6 °F - 71.6 °F 100% 30.06 in 10.0 mi Calm Calm - N/A   Clear
5:55 AM 71.6 °F - 71.6 °F 100% 30.06 in 10.0 mi Calm Calm - N/A   Clear
6:15 AM 71.6 °F - 69.8 °F 94% 30.06 in 10.0 mi Calm Calm - N/A   Clear
6:35 AM 69.8 °F - 69.8 °F 100% 30.07 in 8.0 mi Calm Calm - N/A   Clear
7:50 AM 73.4 °F - 71.6 °F 94% 30.08 in 10.0 mi Calm Calm - N/A   Clear
8:50 AM 78.8 °F - 73.4 °F 83% 30.09 in 10.0 mi Calm Calm - N/A   Clear
9:50 AM 84.2 °F 90.9 °F 73.4 °F 70% 30.08 in 10.0 mi Calm Calm - N/A   Clear
10:50 AM 89.6 °F 98.2 °F 73.4 °F 59% 30.07 in 10.0 mi Calm Calm - N/A   Clear
11:50 AM 91.4 °F 100.1 °F 73.4 °F 55% 30.07 in 10.0 mi Calm Calm - N/A   Clear
1:50 PM 95.0 °F 103.2 °F 71.6 °F 47% 30.05 in 10.0 mi NNE 9.2 mph - N/A   Mostly Cloudy
2:50 PM 93.2 °F 102.4 °F 73.4 °F 52% 30.03 in 10.0 mi Variable 5.8 mph - N/A   Scattered Clouds
3:50 PM 95.0 °F 103.2 °F 71.6 °F 47% 30.00 in 10.0 mi NNW 5.8 mph - N/A   Scattered Clouds
4:50 PM 95.0 °F 103.2 °F 71.6 °F 47% 29.98 in 10.0 mi NE 6.9 mph - N/A   Scattered Clouds
5:50 PM 93.2 °F 102.4 °F 73.4 °F 52% 29.98 in 10.0 mi South 11.5 mph - N/A   Scattered Clouds
6:50 PM 87.8 °F 97.6 °F 75.2 °F 66% 29.99 in 10.0 mi Variable 5.8 mph - N/A   Unknown
7:50 PM 86.0 °F 93.4 °F 73.4 °F 66% 29.99 in 10.0 mi Variable 5.8 mph - N/A   Clear
8:15 PM 82.4 °F 88.2 °F 73.4 °F 74% 29.99 in 10.0 mi Calm Calm - N/A   Clear
8:35 PM 78.8 °F - 75.2 °F 89% 29.99 in 10.0 mi Calm Calm - N/A   Clear
8:55 PM 78.8 °F - 75.2 °F 89% 29.99 in 10.0 mi Calm Calm - N/A   Clear
9:55 PM 80.6 °F 84.6 °F 71.6 °F 74% 30.00 in 10.0 mi South 3.5 mph - N/A   Clear
10:15 PM 80.6 °F 85.4 °F 73.4 °F 79% 30.00 in 10.0 mi SSE 3.5 mph - N/A   Clear
10:35 PM 80.6 °F 85.4 °F 73.4 °F 79% 30.00 in 10.0 mi South 3.5 mph - N/A   Clear
11:15 PM 78.8 °F - 73.4 °F 83% 30.00 in 10.0 mi South 3.5 mph - N/A   Clear
11:35 PM 77.0 °F - 73.4 °F 89% 30.00 in 10.0 mi Calm Calm - N/A   Clear
11:55 PM 75.2 °F - 73.4 °F 94% 30.00 in 10.0 mi Calm Calm - N/A   Clear